Time,TemperatureF,DewpointF,PressureIn,WindDirection,WindDirectionDegrees,WindSpeedMPH,WindSpeedGustMPH,Humidity,HourlyPrecipIn,Conditions,Clouds,dailyrainin,SoftwareType,DateUTC
2013-04-21 00:01:00,26.0,22.0,30.40,North,355,0.0,0.0,83,0.00,,,0.00,,2013-04-21 08:01:00,
2013-04-21 00:11:00,26.0,22.0,30.40,North,355,0.0,0.0,83,0.00,,,0.00,,2013-04-21 08:11:00,
2013-04-21 00:21:00,26.0,22.0,30.40,North,355,0.0,0.0,84,0.00,,,0.00,,2013-04-21 08:21:00,
2013-04-21 00:32:00,26.0,22.0,30.40,North,355,0.0,0.0,85,0.00,,,0.00,,2013-04-21 08:32:00,
2013-04-21 00:41:00,26.0,22.0,30.40,North,355,0.0,0.0,85,0.00,,,0.00,,2013-04-21 08:41:00,
2013-04-21 00:52:00,26.0,22.0,30.40,North,355,0.0,0.0,86,0.00,,,0.00,,2013-04-21 08:52:00,
2013-04-21 01:01:00,25.0,21.0,30.40,North,355,0.0,0.0,85,0.00,,,0.00,,2013-04-21 09:01:00,
2013-04-21 01:11:00,25.0,21.0,30.40,North,355,0.0,0.0,85,0.00,,,0.00,,2013-04-21 09:11:00,
2013-04-21 01:21:00,25.0,21.0,30.39,North,355,0.0,1.0,86,0.00,,,0.00,,2013-04-21 09:21:00,
2013-04-21 01:32:00,25.0,22.0,30.39,North,355,0.0,1.0,88,0.00,,,0.00,,2013-04-21 09:32:00,
2013-04-21 01:42:00,25.0,22.0,30.39,North,355,0.0,1.0,88,0.00,,,0.00,,2013-04-21 09:42:00,
2013-04-21 01:52:00,25.0,22.0,30.39,North,355,0.0,0.0,88,0.00,,,0.00,,2013-04-21 09:52:00,
2013-04-21 02:02:00,25.0,22.0,30.39,North,355,0.0,0.0,89,0.00,,,0.00,,2013-04-21 10:02:00,
2013-04-21 02:12:00,25.0,22.0,30.39,North,355,0.0,0.0,89,0.00,,,0.00,,2013-04-21 10:12:00,
2013-04-21 02:22:00,25.0,22.0,30.38,North,355,0.0,0.0,89,0.00,,,0.00,,2013-04-21 10:22:00,
2013-04-21 02:32:00,25.0,22.0,30.38,North,355,0.0,0.0,89,0.00,,,0.00,,2013-04-21 10:32:00,
2013-04-21 02:42:00,25.0,22.0,30.38,North,355,0.0,0.0,89,0.00,,,0.00,,2013-04-21 10:42:00,
2013-04-21 02:52:00,25.0,22.0,30.38,North,355,0.0,0.0,89,0.00,,,0.00,,2013-04-21 10:52:00,
2013-04-21 03:02:00,24.0,21.0,30.38,North,355,0.0,0.0,89,0.00,,,0.00,,2013-04-21 11:02:00,
2013-04-21 03:11:00,24.0,21.0,30.38,North,355,0.0,0.0,89,0.00,,,0.00,,2013-04-21 11:11:00,
2013-04-21 03:22:00,24.0,22.0,30.37,North,355,0.0,1.0,90,0.00,,,0.00,,2013-04-21 11:22:00,
2013-04-21 03:33:00,24.0,22.0,30.38,North,355,0.0,1.0,90,0.00,,,0.00,,2013-04-21 11:33:00,
2013-04-21 03:42:00,24.0,22.0,30.38,North,355,0.0,1.0,90,0.00,,,0.00,,2013-04-21 11:42:00,
2013-04-21 03:51:00,23.0,21.0,30.38,North,355,0.0,1.0,90,0.00,,,0.00,,2013-04-21 11:51:00,
2013-04-21 04:02:00,23.0,21.0,30.37,North,355,0.0,1.0,90,0.00,,,0.00,,2013-04-21 12:02:00,
2013-04-21 04:12:00,23.0,21.0,30.37,North,355,0.0,1.0,90,0.00,,,0.00,,2013-04-21 12:12:00,
2013-04-21 04:22:00,23.0,21.0,30.37,North,355,0.0,1.0,90,0.00,,,0.00,,2013-04-21 12:22:00,
2013-04-21 04:31:00,23.0,21.0,30.37,NNE,28,0.0,2.0,90,0.00,,,0.00,,2013-04-21 12:31:00,
2013-04-21 04:42:00,23.0,21.0,30.37,NNE,28,0.0,2.0,90,0.00,,,0.00,,2013-04-21 12:42:00,
2013-04-21 04:52:00,23.0,21.0,30.37,NNE,30,0.0,2.0,90,0.00,,,0.00,,2013-04-21 12:52:00,
2013-04-21 05:01:00,23.0,21.0,30.36,ENE,59,1.0,2.0,90,0.00,,,0.00,,2013-04-21 13:01:00,
2013-04-21 05:11:00,23.0,21.0,30.36,ENE,59,1.0,2.0,90,0.00,,,0.00,,2013-04-21 13:11:00,
2013-04-21 05:21:00,24.0,21.0,30.36,ENE,59,1.0,3.0,89,0.00,,,0.00,,2013-04-21 13:21:00,
2013-04-21 05:32:00,25.0,22.0,30.36,ENE,74,0.0,2.0,87,0.00,,,0.00,,2013-04-21 13:32:00,
2013-04-21 05:42:00,25.0,22.0,30.36,ENE,74,0.0,2.0,87,0.00,,,0.00,,2013-04-21 13:42:00,
2013-04-21 05:52:00,25.0,21.0,30.36,ENE,63,0.0,3.0,86,0.00,,,0.00,,2013-04-21 13:52:00,
2013-04-21 06:01:00,26.0,22.0,30.36,ENE,78,1.0,2.0,83,0.00,,,0.00,,2013-04-21 14:01:00,
2013-04-21 06:11:00,26.0,22.0,30.36,ENE,78,1.0,2.0,83,0.00,,,0.00,,2013-04-21 14:11:00,
2013-04-21 06:21:00,26.0,22.0,30.36,ENE,77,0.0,3.0,83,0.00,,,0.00,,2013-04-21 14:21:00,
2013-04-21 06:31:00,26.0,22.0,30.36,NE,35,1.0,3.0,83,0.00,,,0.00,,2013-04-21 14:31:00,
2013-04-21 06:42:00,26.0,22.0,30.36,NE,35,1.0,3.0,83,0.00,,,0.00,,2013-04-21 14:42:00,
2013-04-21 06:52:00,27.0,23.0,30.36,ENE,78,0.0,5.0,83,0.00,,,0.00,,2013-04-21 14:52:00,
2013-04-21 07:01:00,27.0,23.0,30.36,ENE,59,2.0,5.0,84,0.00,,,0.00,,2013-04-21 15:01:00,
2013-04-21 07:11:00,27.0,23.0,30.36,ENE,59,2.0,5.0,84,0.00,,,0.00,,2013-04-21 15:11:00,
2013-04-21 07:22:00,27.0,23.0,30.35,ENE,71,2.0,6.0,85,0.00,,,0.00,,2013-04-21 15:22:00,
2013-04-21 07:33:00,28.0,24.0,30.35,NE,45,2.0,5.0,86,0.00,,,0.00,,2013-04-21 15:33:00,
2013-04-21 07:42:00,28.0,24.0,30.35,NE,45,2.0,5.0,86,0.00,,,0.00,,2013-04-21 15:42:00,
2013-04-21 07:53:00,28.0,24.0,30.35,NE,51,2.0,7.0,85,0.00,,,0.00,,2013-04-21 15:53:00,
2013-04-21 08:03:00,29.0,25.0,30.35,ENE,63,2.0,6.0,84,0.00,,,0.00,,2013-04-21 16:03:00,
2013-04-21 08:12:00,29.0,25.0,30.35,ENE,63,2.0,6.0,84,0.00,,,0.00,,2013-04-21 16:12:00,
2013-04-21 08:22:00,29.0,24.0,30.35,NNE,24,2.0,5.0,82,0.00,,,0.00,,2013-04-21 16:22:00,
2013-04-21 08:32:00,31.0,25.0,30.35,ENE,74,2.0,5.0,78,0.00,,,0.00,,2013-04-21 16:32:00,
2013-04-21 08:42:00,31.0,25.0,30.35,ENE,74,2.0,5.0,78,0.00,,,0.00,,2013-04-21 16:42:00,
2013-04-21 08:52:00,32.0,25.0,30.35,NE,39,2.0,7.0,76,0.00,,,0.00,,2013-04-21 16:52:00,
2013-04-21 09:01:00,33.0,26.0,30.34,NE,45,2.0,7.0,76,0.00,,,0.00,,2013-04-21 17:01:00,
2013-04-21 09:12:00,33.0,26.0,30.34,ENE,73,3.0,7.0,76,0.00,,,0.00,,2013-04-21 17:12:00,
2013-04-21 09:22:00,33.0,26.0,30.34,ENE,73,3.0,7.0,76,0.00,,,0.00,,2013-04-21 17:22:00,
2013-04-21 09:32:00,35.0,27.0,30.35,ENE,61,5.0,14.0,73,0.00,,,0.00,,2013-04-21 17:32:00,
2013-04-21 09:41:00,35.0,27.0,30.35,ENE,61,5.0,14.0,73,0.00,,,0.00,,2013-04-21 17:41:00,
2013-04-21 09:52:00,36.0,28.0,30.35,ENE,63,3.0,13.0,71,0.00,,,0.00,,2013-04-21 17:52:00,
2013-04-21 10:02:00,37.0,27.0,30.35,NE,56,7.0,13.0,67,0.00,,,0.00,,2013-04-21 18:02:00,
2013-04-21 10:11:00,37.0,27.0,30.35,NE,56,7.0,13.0,67,0.00,,,0.00,,2013-04-21 18:11:00,
2013-04-21 10:21:00,38.0,28.0,30.35,NE,54,5.0,13.0,66,0.00,,,0.00,,2013-04-21 18:21:00,
2013-04-21 10:32:00,39.0,27.0,30.34,ENE,57,5.0,13.0,61,0.00,,,0.00,,2013-04-21 18:32:00,
2013-04-21 10:42:00,39.0,27.0,30.34,ENE,57,5.0,13.0,61,0.00,,,0.00,,2013-04-21 18:42:00,
2013-04-21 10:52:00,39.0,27.0,30.34,NE,45,4.0,10.0,61,0.00,,,0.00,,2013-04-21 18:52:00,
2013-04-21 11:02:00,39.0,27.0,30.34,NE,36,6.0,13.0,61,0.00,,,0.00,,2013-04-21 19:02:00,
2013-04-21 11:11:00,39.0,27.0,30.34,NE,36,6.0,13.0,61,0.00,,,0.00,,2013-04-21 19:11:00,
2013-04-21 11:21:00,38.0,26.0,30.34,ENE,57,6.0,12.0,62,0.00,,,0.00,,2013-04-21 19:21:00,
2013-04-21 11:32:00,39.0,27.0,30.34,NE,45,6.0,16.0,61,0.00,,,0.00,,2013-04-21 19:32:00,
2013-04-21 11:42:00,39.0,27.0,30.34,NE,45,6.0,16.0,61,0.00,,,0.00,,2013-04-21 19:42:00,
2013-04-21 11:52:00,39.0,27.0,30.35,NE,34,6.0,16.0,61,0.00,,,0.00,,2013-04-21 19:52:00,
2013-04-21 12:01:00,38.0,25.0,30.35,NNE,33,6.0,13.0,59,0.00,,,0.00,,2013-04-21 20:01:00,
2013-04-21 12:11:00,38.0,25.0,30.35,NNE,33,6.0,13.0,59,0.00,,,0.00,,2013-04-21 20:11:00,
2013-04-21 12:21:00,38.0,25.0,30.35,NNE,32,5.0,13.0,60,0.00,,,0.00,,2013-04-21 20:21:00,
2013-04-21 12:31:00,38.0,26.0,30.35,NE,42,3.0,15.0,62,0.00,,,0.00,,2013-04-21 20:31:00,
2013-04-21 12:41:00,38.0,26.0,30.35,NE,42,3.0,15.0,62,0.00,,,0.00,,2013-04-21 20:41:00,
2013-04-21 12:51:00,38.0,26.0,30.35,NE,47,5.0,12.0,61,0.00,,,0.00,,2013-04-21 20:51:00,
2013-04-21 13:02:00,38.0,25.0,30.35,NE,55,3.0,9.0,60,0.00,,,0.00,,2013-04-21 21:02:00,
2013-04-21 13:12:00,38.0,26.0,30.35,NE,48,4.0,9.0,61,0.00,,,0.00,,2013-04-21 21:12:00,
2013-04-21 13:21:00,38.0,26.0,30.35,NE,48,4.0,9.0,61,0.00,,,0.00,,2013-04-21 21:21:00,
2013-04-21 13:33:00,39.0,27.0,30.35,East,90,2.0,8.0,62,0.00,,,0.00,,2013-04-21 21:33:00,
2013-04-21 13:43:00,39.0,27.0,30.35,East,90,2.0,8.0,62,0.00,,,0.00,,2013-04-21 21:43:00,
2013-04-21 13:53:00,39.0,27.0,30.35,ENE,64,2.0,7.0,62,0.00,,,0.00,,2013-04-21 21:53:00,
2013-04-21 14:02:00,39.0,27.0,30.35,NNE,27,5.0,9.0,62,0.00,,,0.00,,2013-04-21 22:02:00,
2013-04-21 14:12:00,39.0,27.0,30.35,NNE,27,5.0,9.0,62,0.00,,,0.00,,2013-04-21 22:12:00,
2013-04-21 14:22:00,39.0,27.0,30.35,NE,54,4.0,9.0,61,0.00,,,0.00,,2013-04-21 22:22:00,
2013-04-21 14:32:00,39.0,27.0,30.35,NE,34,3.0,7.0,61,0.00,,,0.00,,2013-04-21 22:32:00,
2013-04-21 14:42:00,39.0,27.0,30.35,NE,34,3.0,7.0,61,0.00,,,0.00,,2013-04-21 22:42:00,
2013-04-21 14:52:00,39.0,26.0,30.35,NE,38,4.0,8.0,60,0.00,,,0.00,,2013-04-21 22:52:00,
2013-04-21 15:02:00,40.0,27.0,30.35,ENE,75,2.0,8.0,60,0.00,,,0.00,,2013-04-21 23:02:00,
2013-04-21 15:12:00,40.0,27.0,30.35,ENE,75,2.0,8.0,60,0.00,,,0.00,,2013-04-21 23:12:00,
2013-04-21 15:22:00,40.0,27.0,30.35,NE,50,4.0,10.0,60,0.00,,,0.00,,2013-04-21 23:22:00,
2013-04-21 15:32:00,39.0,28.0,30.34,East,86,5.0,8.0,64,0.00,,,0.00,,2013-04-21 23:32:00,
2013-04-21 15:42:00,39.0,28.0,30.34,East,86,5.0,8.0,64,0.00,,,0.00,,2013-04-21 23:42:00,
2013-04-21 15:52:00,39.0,28.0,30.34,NNE,29,2.0,9.0,65,0.00,,,0.00,,2013-04-21 23:52:00,
2013-04-21 16:01:00,39.0,25.0,30.34,NE,53,3.0,9.0,58,0.00,,,0.00,,2013-04-22 00:01:00,
2013-04-21 16:11:00,39.0,25.0,30.34,NE,53,3.0,9.0,58,0.00,,,0.00,,2013-04-22 00:11:00,
2013-04-21 16:21:00,39.0,27.0,30.34,ENE,73,6.0,14.0,61,0.00,,,0.00,,2013-04-22 00:21:00,
2013-04-21 16:31:00,39.0,32.0,30.34,East,89,4.0,14.0,75,0.00,,,0.00,,2013-04-22 00:31:00,
2013-04-21 16:42:00,39.0,32.0,30.34,East,89,4.0,14.0,75,0.00,,,0.00,,2013-04-22 00:42:00,
2013-04-21 16:51:00,39.0,33.0,30.34,East,81,4.0,8.0,79,0.00,,,0.00,,2013-04-22 00:51:00,
2013-04-21 17:01:00,38.0,33.0,30.34,East,86,3.0,9.0,81,0.00,,,0.00,,2013-04-22 01:01:00,
2013-04-21 17:11:00,38.0,33.0,30.34,East,86,3.0,9.0,81,0.00,,,0.00,,2013-04-22 01:11:00,
2013-04-21 17:21:00,38.0,33.0,30.34,ENE,66,4.0,10.0,81,0.00,,,0.00,,2013-04-22 01:21:00,
2013-04-21 17:32:00,38.0,33.0,30.34,East,88,3.0,8.0,81,0.00,,,0.00,,2013-04-22 01:32:00,
2013-04-21 17:41:00,38.0,33.0,30.34,East,88,3.0,8.0,81,0.00,,,0.00,,2013-04-22 01:41:00,
2013-04-21 17:51:00,38.0,32.0,30.34,ENE,73,5.0,12.0,80,0.00,,,0.00,,2013-04-22 01:51:00,
2013-04-21 18:01:00,38.0,32.0,30.33,East,82,3.0,12.0,80,0.00,,,0.00,,2013-04-22 02:01:00,
2013-04-21 18:11:00,38.0,32.0,30.33,East,82,3.0,12.0,80,0.00,,,0.00,,2013-04-22 02:11:00,
2013-04-21 18:21:00,38.0,32.0,30.33,ENE,58,7.0,12.0,79,0.00,,,0.00,,2013-04-22 02:21:00,
2013-04-21 18:31:00,38.0,33.0,30.33,ENE,57,5.0,12.0,82,0.00,,,0.00,,2013-04-22 02:31:00,
2013-04-21 18:41:00,38.0,33.0,30.33,ENE,57,5.0,12.0,82,0.00,,,0.00,,2013-04-22 02:41:00,
2013-04-21 18:51:00,37.0,33.0,30.33,ENE,76,6.0,15.0,84,0.00,,,0.00,,2013-04-22 02:51:00,
2013-04-21 19:02:00,37.0,34.0,30.34,ENE,62,4.0,9.0,87,0.00,,,0.00,,2013-04-22 03:02:00,
2013-04-21 19:11:00,37.0,34.0,30.34,ENE,62,4.0,9.0,87,0.00,,,0.00,,2013-04-22 03:11:00,
2013-04-21 19:22:00,36.0,33.0,30.34,ENE,68,6.0,14.0,87,0.00,,,0.00,,2013-04-22 03:22:00,
2013-04-21 19:33:00,36.0,33.0,30.34,East,79,5.0,12.0,89,0.01,,,0.01,,2013-04-22 03:33:00,
2013-04-21 19:42:00,36.0,33.0,30.34,East,79,5.0,12.0,89,0.01,,,0.01,,2013-04-22 03:42:00,
2013-04-21 19:52:00,35.0,32.0,30.34,ENE,59,5.0,10.0,90,0.01,,,0.01,,2013-04-22 03:52:00,
2013-04-21 20:02:00,35.0,32.0,30.34,East,82,4.0,10.0,90,0.01,,,0.01,,2013-04-22 04:02:00,
2013-04-21 20:12:00,35.0,32.0,30.34,East,82,4.0,10.0,90,0.01,,,0.01,,2013-04-22 04:12:00,
2013-04-21 20:23:00,35.0,32.0,30.34,ENE,73,5.0,12.0,90,0.01,,,0.01,,2013-04-22 04:23:00,
2013-04-21 20:32:00,35.0,32.0,30.35,ENE,61,5.0,10.0,90,0.00,,,0.01,,2013-04-22 04:32:00,
2013-04-21 20:43:00,35.0,32.0,30.35,ENE,61,5.0,10.0,90,0.00,,,0.01,,2013-04-22 04:43:00,
2013-04-21 20:52:00,35.0,32.0,30.35,ENE,58,5.0,12.0,90,0.00,,,0.01,,2013-04-22 04:52:00,
2013-04-21 21:02:00,35.0,33.0,30.35,East,79,3.0,10.0,91,0.00,,,0.01,,2013-04-22 05:02:00,
2013-04-21 21:11:00,35.0,33.0,30.35,East,79,3.0,10.0,91,0.00,,,0.01,,2013-04-22 05:11:00,
2013-04-21 21:22:00,35.0,33.0,30.35,NE,55,5.0,7.0,91,0.00,,,0.01,,2013-04-22 05:22:00,
2013-04-21 21:32:00,34.0,32.0,30.35,ENE,71,4.0,12.0,91,0.00,,,0.01,,2013-04-22 05:32:00,
2013-04-21 21:52:00,34.0,32.0,30.35,NE,53,4.0,10.0,91,0.00,,,0.01,,2013-04-22 05:52:00,
2013-04-21 22:02:00,34.0,32.0,30.36,NE,47,5.0,9.0,91,0.00,,,0.01,,2013-04-22 06:02:00,
2013-04-21 22:11:00,34.0,32.0,30.36,NE,47,5.0,9.0,91,0.00,,,0.01,,2013-04-22 06:11:00,
2013-04-21 22:21:00,34.0,31.0,30.36,ENE,61,4.0,9.0,90,0.00,,,0.01,,2013-04-22 06:21:00,
2013-04-21 22:32:00,35.0,32.0,30.37,NE,35,2.0,8.0,88,0.00,,,0.01,,2013-04-22 06:32:00,
2013-04-21 22:41:00,35.0,32.0,30.37,NE,35,2.0,8.0,88,0.00,,,0.01,,2013-04-22 06:41:00,
2013-04-21 22:51:00,35.0,32.0,30.37,NE,44,2.0,8.0,87,0.00,,,0.01,,2013-04-22 06:51:00,
2013-04-21 23:01:00,35.0,31.0,30.37,NE,46,2.0,8.0,85,0.00,,,0.01,,2013-04-22 07:01:00,
2013-04-21 23:11:00,35.0,31.0,30.37,NE,46,2.0,8.0,85,0.00,,,0.01,,2013-04-22 07:11:00,
2013-04-21 23:21:00,35.0,31.0,30.37,NE,46,3.0,7.0,85,0.00,,,0.01,,2013-04-22 07:21:00,
2013-04-21 23:32:00,35.0,31.0,30.37,NE,49,2.0,5.0,84,0.00,,,0.01,,2013-04-22 07:32:00,
2013-04-21 23:42:00,35.0,31.0,30.37,NE,49,2.0,5.0,84,0.00,,,0.01,,2013-04-22 07:42:00,
2013-04-21 23:52:00,35.0,31.0,30.38,NE,46,2.0,5.0,84,0.00,,,0.01,,2013-04-22 07:52:00,